Regional Weather Roundup
Issued by NWS Green Bay, WI

Home | Current Version | Previous Version | Text Only | Print | Product List | Glossary On
Versions: 1 2 3 4 5 6 7 8 9 10 11 12 13 14 15 16 17 18 19 20 21 22 23 24 25 26 27 28 29 30 31 32 33 34 35 36 37 38 39 40 41 42 43 44 45 46 47 48 49 50
000
ASUS43 KGRB 312111
RWRGRB

NORTH-CENTRAL AND NORTHEAST WISCONSIN REGIONAL WEATHER ROUNDUP
NATIONAL WEATHER SERVICE GREEN BAY WI
400 PM CDT TUE MAY 31 2016

WIZ005-009-010>012-018-019-312200-
NORTH CENTRAL WISCONSIN

CITY           SKY/WX    TMP DP  RH WIND       PRES   REMARKS
IRONWOOD       CLOUDY    72  55  56 SE13      29.85F
MANITOWISH WTR CLOUDY    72  55  55 SE13G23   29.90
ARBOR VITAE    MOSUNNY   77  58  52 S16G23    29.91F
EAGLE RIVER      N/A     72  48  43 S10G20    29.94F
LAND O LAKES   MOSUNNY   72  49  43 SE15G25   29.95F
RHINELANDER    MOSUNNY   71  52  50 S15G29    29.96F
PHILLIPS       CLOUDY    72  59  64 SE14G23   29.87F
ANTIGO         CLOUDY    68  56  65 SE16G23   29.99F
TOMAHAWK       CLOUDY    69  56  62 SE10G24   29.94F
MERRILL        CLOUDY    66  61  82 SE9G18    29.94F
$$

WIZ013-073-312200-
NORTHEAST WISCONSIN

CITY           SKY/WX    TMP DP  RH WIND       PRES   REMARKS
IRON MOUNTAIN  MOSUNNY   70  44  39 SE16G23   30.00F
MARINETTE        N/A    N/A N/A N/A MISG        N/A
OCONTO         CLOUDY    65  51  61 E8        30.02F
$$

WIZ017-030-035>037-045-312200-
CENTRAL WISCONSIN

CITY           SKY/WX    TMP DP  RH WIND       PRES   REMARKS
MEDFORD        CLOUDY    70  61  73 SE16G28   29.89F
WAUSAU         CLOUDY    70  58  65 SE15G24   29.93F
MOSINEE        MOSUNNY   66  61  82 SE9       29.96F
MARSHFIELD     CLOUDY    72  58  61 SE21G29   29.90F
WISC RAPIDS    CLOUDY    71  57  61 SE13G20   29.95F
STEVENS POINT  CLOUDY    66  58  73 E13       29.96F
WAUPACA        LGT RAIN  73  60  63 E9        29.97F
SHAWANO        CLOUDY    70  55  57 E9        30.00F
CLINTONVILLE   CLOUDY    72  55  56 E10       29.99F
WAUTOMA        PTSUNNY  N/A N/A N/A SE12      29.96F
$$

WIZ038-039-048-051-312200-
FOX VALLEY

CITY           SKY/WX    TMP DP  RH WIND       PRES   REMARKS
NWS GREEN BAY  CLOUDY    64  57  78 E5        30.02F
APPLETON       LGT RAIN  66  54  63 SE10G21   30.00F
OSHKOSH        LGT RAIN  68  60  75 S13G20    30.00F
FOND DU LAC    LGT RAIN  67  62  84 SE10      30.00F
$$

WIZ022-050-052-312200-
EAST CENTRAL WISCONSIN

CITY           SKY/WX    TMP DP  RH WIND       PRES   REMARKS
EPHRAIM        FAIR      64  49  58 E7        30.03F
STURGEON BAY   MOSUNNY   67  52  58 E8        30.04F
MANITOWOC      CLOUDY    62  51  67 VRB5      30.04F
SHEBOYGAN      PTSUNNY   63  54  72 NE3       30.02F
$$

LMZ563-521-522-541>543-312200-
LAKESHORE

STATION/POSITION TIME  TEMP    WIND        PRES    VSBY  WAVE
                       AIR SEA DIR/SP/G                  HT/PER
                 (UTC) (F)     (DEG/KT/KT) (MB)    (MI)  (FT/S)
SHEBOYGAN LKSHOR 2100   49      10/  9/  9 1017.0F
KEWAUNEE LKSHORE 2000   53      20/  8/ 13 1017.0R
ALGOMA MARINA    2002           80/ 14/ 17   N/A
NORTHPORT PIER   2000   55      80/  7/ 10 1017.9F
N MID LAKE BUOY  2050   51 48   30/  8/  8 1017.2F         1/ 4
SISTER BAY LKSHO 2020   69     140/  9/ 11   N/A
CHAMBERS ISLAND  2000   56      10/  9/ 10 1017.9F
MENOMINEE LKSHOR 2000   55      20/ 15/ 16 1016.6F
$$




USA.gov is the U.S. government's official web portal to all federal, state and local government web resources and services.